Вернуться в каталог

STARLINK-30394

АктивенСвязьVLEO
NORAD 57810·PAYLOAD·🇺🇸 United States

Запущен Sep 9, 2023 с Cape Canaveral Space Force Station

Loading…

Ближайшие Пролёты (ближайшие 24 часа)

TLE

СвежийSource: CelesTrak SupGP

Эпоха: Sep 15, 2026, 03:15 UTC

1 57810C 23138C   26258.13590278 -.00032746  00000+0 -11859-2 0  2583
2 57810  43.0021 244.2055 0001269 267.7705  58.4827 15.27598612    18

Отслеживайте STARLINK-30394 в реальном времени с AllMySat

Download on the App Store